Home > Weather > Birmingham > Past weeks

Flag for U.S.A. Weather for the Past 2 Weeks in Birmingham, Alabama, U.S.A.

Now
44 °F

Clear.


Feels Like: 40 °F
Forecast: 35 / 59 °F
Wind: 7 mph from Northeast

Location: Birmingham International Airport

Current Time: Feb 12, 2016 at 12:59:31 AM

Latest Report: Feb 11, 2016 at 11:53 PM


Visibility: 10 mi

Pressure: 30.18 "Hg

Humidity: 47%

Dew point: 25 °F

Location of BirminghamLocation

Historic Weather in Birmingham — Graph

°F

Birmingham Temperature Yesterday

Maximum temperature yesterday: 59 °F (at 3:53 PM)
Minimum temperature yesterday: 29 °F (at 12:53 AM)
Average temperature yesterday: 44 °F

High & Low Weather Summary for the Past Weeks

 TemperatureHumidityPressure
High76 °F (Feb 2, 11:53 AM)100% (Feb 2, 1:53 AM)30.50 "Hg (Feb 2, 1:53 AM)
Low23 °F (Feb 10, 3:53 AM)20% (Feb 10, 4:53 PM)29.77 "Hg (Feb 3, 12:53 AM)
Average47 °F60%30.09 "Hg
* Reported Jan 27 10:53 PM — Feb 11 10:53 PM, Birmingham, Weather by CustomWeather, © 2016

Note: Actual official high and low records may vary slightly from our data, if they occured in-between our weather recording intervals... More about our weather records

Advertising

Birmingham Weather History for the Previous 24 Hours

 ConditionsComfort  
Time TempWeatherWind HumidityBarometerVisibility
10:53 PM
Thu, Feb 11
41 °FClear.No wind65%30.18 "Hg10 mi
9:53 PM41 °FClear.No wind65%30.19 "Hg10 mi
8:53 PM42 °FClear.5 mph62%30.19 "Hg10 mi
7:53 PM44 °FClear.6 mph58%30.18 "Hg10 mi
6:53 PM46 °FClear.5 mph56%30.18 "Hg10 mi
5:53 PM53 °FPassing clouds.5 mph38%30.17 "Hg10 mi
4:53 PM57 °FSunny.7 mph37%30.16 "Hg10 mi
3:53 PM59 °FSunny.No wind39%30.14 "Hg10 mi
2:53 PM58 °FSunny.5 mph41%30.13 "Hg10 mi
1:53 PM57 °FSunny.No wind42%30.14 "Hg10 mi
12:53 PM55 °FSunny.6 mph44%30.14 "Hg10 mi
11:53 AM54 °FSunny.3 mph43%30.14 "Hg10 mi
10:53 AM48 °FSunny.No wind48%30.18 "Hg10 mi
9:53 AM47 °FPassing clouds.3 mph44%30.19 "Hg10 mi
8:53 AM41 °FSunny.6 mph49%30.19 "Hg10 mi
7:53 AM38 °FSunny.8 mph48%30.18 "Hg10 mi
6:53 AM34 °FSunny.6 mph52%30.16 "Hg10 mi
5:53 AM33 °FPassing clouds.6 mph45%30.16 "Hg10 mi
4:53 AM34 °FClear.6 mph42%30.15 "Hg10 mi
3:53 AM31 °FClear.No wind52%30.15 "Hg10 mi
2:53 AM30 °FClear.3 mph54%30.16 "Hg10 mi
1:53 AM30 °FClear.No wind56%30.17 "Hg10 mi
12:53 AM29 °FClear.No wind61%30.18 "Hg10 mi
Weather by CustomWeather, © 2016

See weather overviewHow to use our weather pages